Cumshewa Island, British Columbia

5:44 AM PDT on March 24, 2017 (GMT -0700)
Cumshewa Island

Weather History for CWZL - February, 2013

Change the Weather History Date:

Tuesday, February 5, 2013

  Actual Average (CYZP) Record (CYZP)
Temperature  
Mean Temperature 42 °F -  
Max Temperature 45 °F 41 °F 49 °F (2016)
Min Temperature 39 °F 34 °F 26 °F (2014)
Degree Days  
Heating Degree Days 23    
Moisture  
Dew Point 40 °F    
Average Humidity 87    
Maximum Humidity 97    
Minimum Humidity 75    
Precipitation  
Precipitation 0.00 in - - ()
Sea Level Pressure  
Sea Level Pressure 29.33 in    
Wind  
Wind Speed 22 mph ()    
Max Wind Speed 47 mph    
Max Gust Speed -    
Averages and records for this station are not official NWS values.
T = Trace of Precipitation, MM = Missing Value Source: Averaged Metar Reports

Daily Weather History Graph

Daily Weather History Graph

Search for Another Location

Airport or City:

Trip Planner

Search our weather history database for the weather conditions in past years. The results will help you decide how hot, cold, wet, or windy it might be!

Date:

Astronomy

Feb. 05, 2013 Rise Set
Actual Time 8:22 AM PST 5:39 PM PST
Civil Twilight 7:45 AM PST 6:16 PM PST
Nautical Twilight 7:03 AM PST 6:57 PM PST
Astronomical Twilight 6:23 AM PST 7:37 PM PST
Moon 4:28 AM PST (2/5) 12:46 PM PST (2/5)
Length of Visible Light 10h 31m
Length of Day
9h 17m
Waning Crescent, 25% of the Moon is Illuminated
Feb 5
Waning Crescent
Feb 9
New
Feb 17
First Quarter
Feb 25
Full
Mar 4
Last Quarter

Hourly Weather History & Observations

Time (PST) Temp. Windchill Dew Point Humidity Pressure Visibility Wind Dir Wind Speed Gust Speed Precip Events Conditions
12:00 AM 45.9 °F 35.0 °F 43.7 °F 92% 29.28 in - SSE 41.4 mph - N/A   Unknown
1:00 AM 45.7 °F 34.7 °F 43.3 °F 92% 29.29 in - SSE 41.4 mph - N/A   Unknown
2:00 AM 45.1 °F 33.5 °F 41.7 °F 88% 29.22 in - SSE 46.0 mph - N/A   Unknown
3:00 AM 45.1 °F 35.5 °F 42.6 °F 91% 29.21 in - SE 29.9 mph - N/A   Unknown
4:00 AM 45 °F - 41 °F 82% 29.26 in - South 20.7 mph - -  
4:00 AM 45.3 °F 37.3 °F 41.4 °F 86% 29.26 in - South 20.7 mph - N/A   Unknown
5:00 AM 44.2 °F 35.4 °F 39.0 °F 82% 29.29 in - South 23.0 mph - N/A   Unknown
6:00 AM 43.9 °F 35.9 °F 39.0 °F 83% 29.32 in - South 18.4 mph - N/A   Unknown
7:00 AM 44.2 °F 38.0 °F 38.8 °F 81% 29.34 in - South 12.7 mph - N/A   Unknown
8:00 AM 44.2 °F 38.0 °F 40.1 °F 85% 29.35 in - South 12.7 mph - N/A   Unknown
9:00 AM 44.8 °F 38.0 °F 40.3 °F 84% 29.36 in - South 15.0 mph - N/A   Unknown
10:00 AM 44 °F - 39 °F 75% 29.37 in - South 20.7 mph - -  
10:00 AM 43.7 °F 35.2 °F 38.7 °F 82% 29.37 in - South 20.7 mph - N/A   Unknown
11:00 AM 44.6 °F 39.2 °F 40.5 °F 85% 29.36 in - SE 10.4 mph - N/A   Unknown
12:00 PM 41.9 °F 28.7 °F 38.7 °F 88% 29.35 in - SE 47.2 mph - N/A   Unknown
1:00 PM 44.4 °F 35.1 °F 41.2 °F 88% 29.31 in - SSE 26.5 mph - N/A   Unknown
2:00 PM 43.2 °F 36.2 °F 39.6 °F 87% 29.33 in - South 13.8 mph - N/A   Unknown
3:00 PM 45.0 °F 36.6 °F 40.6 °F 85% 29.32 in - SSE 21.9 mph - N/A   Unknown
4:00 PM 44 °F - 39 °F 78% 29.33 in - SSE 18.4 mph - -  
4:00 PM 44.4 °F 36.6 °F 39.4 °F 82% 29.33 in - SSE 18.4 mph - N/A   Unknown
5:00 PM 44.4 °F 37.2 °F 40.3 °F 85% 29.34 in - SSE 16.1 mph - N/A   Unknown
6:00 PM 43.7 °F 36.9 °F 40.5 °F 88% 29.34 in - South 13.8 mph - N/A   Unknown
7:00 PM 43.2 °F 38.4 °F 39.4 °F 86% 29.36 in - South 8.1 mph - N/A   Unknown
8:00 PM 42.4 °F 37.5 °F 39.6 °F 90% 29.37 in - South 8.1 mph - N/A   Unknown
9:00 PM 41.0 °F 37.1 °F 39.4 °F 94% 29.38 in - West 5.8 mph - N/A   Unknown
10:00 PM 40 °F - 39 °F 93% 29.39 in - West 6.9 mph - -  
10:00 PM 39.7 °F 34.9 °F 38.7 °F 96% 29.39 in - West 6.9 mph - N/A   Unknown
11:00 PM 39.0 °F 33.4 °F 38.3 °F 97% 29.41 in - West 8.1 mph - N/A   Unknown